Regional Weather Roundup
Issued by NWS Jackson, KY

Home | Current Version | Previous Version | Graphics & Text | Print | Product List | Glossary On
Versions: 1 2 3 4 5 6 7 8 9 10 11 12 13 14 15 16 17 18 19 20 21 22 23 24 25 26 27 28 29 30 31 32 33 34 35 36 37 38 39 40 41 42 43 44 45 46 47 48 49 50
000
ASUS43 KJKL 010311
RWRJKL

EAST KENTUCKY HOURLY WEATHER ROUNDUP
NATIONAL WEATHER SERVICE JACKSON KY
1000 PM EST SAT JAN 31 2015

NOTE: "FAIR" INDICATES FEW OR NO CLOUDS BELOW 12,000 FEET WITH
NO SIGNIFICANT WEATHER AND/OR OBSTRUCTIONS TO VISIBILITY.

* THESE REPORTS ARE NOT UNDER NWS QUALITY CONTROL AND MAY NOT
  REPORT WEATHER SUCH AS PRECIPITATION AND FOG.

KYZ079-080-083-085-087-088-110-112-115-119-120-010400
...EASTERN KENTUCKY...

CITY           SKY/WX    TMP DP  RH WIND       PRES   REMARKS
JACKSON        CLOUDY    39  10  30 CALM      30.25F
LONDON         CLOUDY    38  15  39 CALM      30.25S
SOMERSET*      CLOUDY    37  19  48 NE5       30.26F WCI  34
MONTICELLO*    CLOUDY    39  23  53 CALM      30.26F
MIDDLESBORO*   CLOUDY    37  23  58 CALM      30.28F
HARLAN APT*    CLOUDY    36  19  51 E7        30.26F WCI  30
HAZARD APT*    CLOUDY    36  16  44 CALM      30.25F
BLACK MTN*       N/A     30  -9  17 SW3         N/A
PIKEVILLE APT* PTCLDY    36  12  38 CALM      30.26S
BIG SANDY*     CLOUDY    36  15  41 SW3       30.27S
MOREHEAD APT*  CLOUDY    37  18  44 CALM      30.29S
$$

KYZ035-036-041-042-044-050-067-078-099-010400
...CENTRAL KENTUCKY...

CITY           SKY/WX    TMP DP  RH WIND       PRES   REMARKS
MT STERLING*   CLOUDY    34  23  64 CALM      30.26F
FLEMING/MASON* CLOUDY    35  21  57 S3        30.27F
DANVILLE*      CLOUDY    34  25  69 CALM      30.26S
RICHMOND*      CLOUDY    36  19  51 CALM      30.25S
LEXINGTON      CLOUDY    36  20  52 E5        30.25F WCI  32
FRANKFORT      CLOUDY    36  21  54 CALM      30.24F
$$

KYZ091>093-OHZ055-061-077-WVZ005-015-034-035-042-010400
...SOUTHERN OHIO/WEST VIRGINIA...

CITY           SKY/WX    TMP DP  RH WIND       PRES   REMARKS
COVINGTON      LGT RAIN  36  23  59 SW3       30.24F
COLUMBUS       CLOUDY    33  21  61 S6        30.23F WCI  28
DAYTON         LGT RAIN  35  25  66 SW14      30.22F WCI  26
WILMINGTON     CLOUDY    33  22  63 SW8       30.22F WCI  26
HUNTINGTON     CLOUDY    33  18  53 CALM      30.27F
CHARLESTON     CLOUDY    30  21  69 CALM      30.27F
PINEVILLE*     MOCLDY    29  25  86 MISG      30.30F
BECKLEY        PTCLDY    28   9  44 SW3       30.22F
BLUEFIELD      PTCLDY    34  11  38 W7        30.21F WCI  28
$$

VAZ002-007-008-TNZ017-027-036-066-071-010400
...SOUTHWEST VIRGINIA/EAST TENNESSEE...

CITY           SKY/WX    TMP DP  RH WIND       PRES   REMARKS
WISE*          CLOUDY    34  10  37 S3        30.23F
JONESVILLE*    CLOUDY    36  19  51 CALM      30.29F
ABINGDON*      MOCLDY    35  17  49 CALM      30.26F
BRISTOL        CLOUDY    35  20  54 CALM      30.28F
KNOXVILLE      CLOUDY    39  20  46 CALM      30.27F
OAK RIDGE      CLOUDY    40  21  46 CALM      30.28F
CROSSVILLE     CLOUDY    38  16  40 SW3       30.24F
NASHVILLE      CLOUDY    42  21  43 E3        30.23F
$$

...KEY TO REMARKS...
VSB - VISIBILITY IN MILES
WCI - WIND CHILL INDEX
HX  - HEAT INDEX

$$



USA.gov is the U.S. government's official web portal to all federal, state and local government web resources and services.